DW8749 Weather Reports


Display with metric or nautical units.
time (UTC)temp
F
wind
direction
speed
MPH
gust
MPH
rain 1hr
in
rain 24hr
in
rain mn
in
humidity
%
barometer
mb
20260906050015 77 170 0.0 0.0 0.00 0.00 0.00 71 1014.0
20260906045511 77 170 0.0 1.0 0.00 0.00 0.00 71 1014.0
20260906045010 77 169 0.0 1.0 0.00 0.00 0.00 71 1013.9
20260906044523 77 159 0.0 0.0 0.00 0.00 0.00 71 1013.9
20260906044013 77 163 0.0 0.0 0.00 0.00 0.00 71 1013.9
20260906043513 77 168 0.0 1.0 0.00 0.00 0.00 71 1013.9
20260906043024 78 211 0.0 1.0 0.00 0.00 0.00 70 1013.8
20260906042511 78 203 0.0 2.0 0.00 0.00 0.00 70 1014.0
20260906042003 78 226 0.0 2.0 0.00 0.00 0.00 70 1013.9
20260906041507 78 205 0.0 0.0 0.00 0.00 0.00 69 1013.9
20260906041009 78 231 0.0 0.0 0.00 0.00 0.00 69 1013.9
20260906040507 79 231 0.0 0.0 0.00 0.00 0.00 69 1013.9
20260906040021 79 231 0.0 0.0 0.00 0.00 0.00 68 1014.0
20260906035512 79 231 0.0 0.0 0.00 0.00 0.00 69 1014.1
20260906035016 79 232 0.0 0.0 0.00 0.00 0.00 68 1014.1
20260906034528 79 201 0.0 0.0 0.00 0.00 0.00 68 1014.1
20260906034015 79 171 0.0 0.0 0.00 0.00 0.00 68 1013.9
20260906033515 79 171 0.0 2.0 0.00 0.00 0.00 68 1013.9
20260906033037 80 226 0.0 2.0 0.00 0.00 0.00 68 1013.9
20260906032503 80 239 0.0 0.0 0.00 0.00 0.00 68 1013.9
20260906032008 80 208 0.0 0.0 0.00 0.00 0.00 68 1013.7
20260906031512 80 129 0.0 0.0 0.00 0.00 0.00 68 1013.6
20260906031008 80 129 0.0 0.0 0.00 0.00 0.00 68 1013.5
20260906030510 80 129 0.0 0.0 0.00 0.00 0.00 69 1013.4
20260906030021 80 129 0.0 0.0 0.00 0.00 0.00 69 1013.3
20260906025512 80 129 0.0 0.0 0.00 0.00 0.00 68 1013.3
20260906025017 80 129 0.0 0.0 0.00 0.00 0.00 68 1013.4
20260906024541 80 336 0.0 0.0 0.00 0.00 0.00 67 1013.3
20260906024014 80 336 0.0 0.0 0.00 0.00 0.00 68 1013.2
20260906023516 80 336 0.0 0.0 0.00 0.00 0.00 68 1013.2
20260906023026 81 336 0.0 0.0 0.00 0.00 0.00 68 1013.1
20260906022506 81 336 0.0 0.0 0.00 0.00 0.00 68 1013.1
20260906022006 81 336 0.0 0.0 0.00 0.00 0.00 68 1013.1
20260906021512 81 336 0.0 0.0 0.00 0.00 0.00 67 1013.1
20260906021012 81 336 0.0 0.0 0.00 0.00 0.00 68 1013.0
20260906020513 81 336 0.0 0.0 0.00 0.00 0.00 67 1013.1
20260906020023 81 336 0.0 0.0 0.00 0.00 0.00 67 1013.1
20260906015515 81 336 0.0 0.0 0.00 0.00 0.00 67 1013.0
20260906015015 81 336 0.0 0.0 0.00 0.00 0.00 68 1012.9
20260906014539 81 336 0.0 0.0 0.00 0.00 0.00 67 1012.8
20260906014016 82 336 0.0 0.0 0.00 0.00 0.00 68 1012.8
20260906013517 82 336 0.0 0.0 0.00 0.00 0.00 68 1012.6
20260906013027 82 336 0.0 0.0 0.00 0.00 0.00 68 1012.6
20260906012510 82 336 0.0 0.0 0.00 0.00 0.00 67 1012.6
20260906012008 82 336 0.0 0.0 0.00 0.00 0.00 67 1012.6
20260906011518 83 336 0.0 0.0 0.00 0.00 0.00 66 1012.5
20260906011013 83 336 0.0 0.0 0.00 0.00 0.00 66 1012.5
20260906010513 83 336 0.0 0.0 0.00 0.00 0.00 65 1012.6
20260906010028 83 336 0.0 0.0 0.00 0.00 0.00 64 1012.6
20260906005515 83 336 0.0 2.0 0.00 0.00 0.00 64 1012.6
20260906005017 83 336 0.0 2.0 0.00 0.00 0.00 64 1012.7
20260906004529 83 234 0.0 0.0 0.00 0.00 0.00 63 1012.7
20260906004014 83 182 0.0 0.0 0.00 0.00 0.00 62 1012.5
20260906003508 83 182 0.0 0.0 0.00 0.00 0.00 63 1012.7
20260906003014 83 241 0.0 2.0 0.00 0.00 0.00 63 1012.7
20260906002511 83 241 0.0 2.0 0.00 0.00 0.00 63 1012.7
20260906002012 83 268 0.0 3.0 0.00 0.00 0.00 63 1012.8
20260906001523 83 298 0.0 3.0 0.00 0.00 0.00 63 1012.6
20260906001015 83 263 0.0 2.0 0.00 0.00 0.00 63 1012.6
20260906000515 83 263 0.0 2.0 0.00 0.00 0.00 63 1012.6
20260906000032 83 263 0.0 1.0 0.00 0.00 0.00 63 1012.6
20260905235519 83 39 0.0 2.0 0.00 0.00 0.00 63 1012.4
20260905235015 83 39 1.0 4.0 0.00 0.00 0.00 63 1012.3
20260905234529 83 39 1.0 4.0 0.00 0.00 0.00 63 1012.2
20260905234014 82 38 2.0 5.0 0.00 0.00 0.00 64 1012.3
20260905233510 82 49 3.0 5.0 0.00 0.00 0.00 64 1012.4
20260905233015 82 37 2.0 5.0 0.00 0.00 0.00 64 1012.4
20260905232513 82 30 1.0 11.0 0.00 0.00 0.00 65 1012.5
20260905232013 83 342 4.0 11.0 0.00 0.00 0.00 65 1012.7
20260905231524 82 86 0.0 2.0 0.00 0.00 0.00 63 1012.5
20260905231015 82 86 0.0 2.0 0.00 0.00 0.00 65 1012.4
20260905230517 82 155 0.0 0.0 0.00 0.00 0.00 65 1012.4
20260905230006 81 304 0.0 0.0 0.00 0.00 0.00 66 1012.4
20260905225503 81 304 0.0 2.0 0.00 0.00 0.00 66 1012.5
20260905225006 81 304 0.0 4.0 0.00 0.00 0.00 67 1012.5
20260905224510 81 273 2.0 8.0 0.00 0.00 0.00 67 1012.6
20260905224011 81 290 3.0 9.0 0.00 0.00 0.00 66 1012.7
20260905223511 82 294 4.0 9.0 0.00 0.00 0.00 66 1012.7
20260905223019 82 321 6.0 17.0 0.00 0.00 0.00 65 1012.7
20260905222516 83 302 9.0 17.0 0.00 0.00 0.00 62 1012.9
20260905222016 85 313 8.0 14.0 0.00 0.00 0.00 58 1012.8
20260905221527 85 289 3.0 8.0 0.00 0.00 0.00 61 1012.8
20260905221014 85 302 0.0 0.0 0.00 0.00 0.00 60 1012.4
20260905220503 85 302 0.0 2.0 0.00 0.00 0.00 61 1012.3
20260905220008 85 302 0.0 8.0 0.00 0.00 0.00 61 1012.4
20260905215508 85 302 0.0 8.0 0.00 0.00 0.00 61 1012.3
20260905215009 85 306 4.0 7.0 0.00 0.00 0.00 62 1012.2
20260905214520 85 326 1.0 5.0 0.00 0.00 0.00 64 1012.1
20260905214011 85 321 0.0 2.0 0.00 0.00 0.00 64 1012.0
20260905213513 84 161 0.0 2.0 0.00 0.00 0.00 62 1012.3
20260905213025 84 106 1.0 13.0 0.00 0.00 0.00 63 1012.5
20260905212515 85 331 1.0 22.0 0.00 0.00 0.00 61 1012.6
20260905212017 85 302 14.0 30.0 0.00 0.00 0.00 58 1012.7
20260905211537 88 346 20.0 30.0 0.00 0.00 0.00 51 1012.9
20260905211017 90 324 12.0 19.0 0.00 0.00 0.00 48 1012.8
20260905210506 93 292 12.0 19.0 0.00 0.00 0.00 43 1012.5
20260905210010 96 286 7.0 14.0 0.00 0.00 0.00 38 1012.7
20260905205507 96 61 2.0 10.0 0.00 0.00 0.00 36 1012.4
20260905205011 97 144 5.0 11.0 0.00 0.00 0.00 36 1012.5
20260905204526 97 101 7.0 11.0 0.00 0.00 0.00 35 1012.6
20260905204013 97 153 4.0 12.0 0.00 0.00 0.00 36 1012.4
20260905203512 97 206 4.0 12.0 0.00 0.00 0.00 35 1012.4
20260905203027 97 155 6.0 13.0 0.00 0.00 0.00 36 1012.4
20260905202514 97 170 7.0 13.0 0.00 0.00 0.00 36 1012.1
20260905202014 97 140 5.0 12.0 0.00 0.00 0.00 36 1012.2
20260905201530 98 360 5.0 14.0 0.00 0.00 0.00 36 1012.3
20260905201007 98 142 7.0 17.0 0.00 0.00 0.00 36 1012.5
20260905200513 98 77 4.0 17.0 0.00 0.00 0.00 35 1012.7
20260905200018 99 148 7.0 16.0 0.00 0.00 0.00 35 1012.7
20260905195510 98 155 8.0 16.0 0.00 0.00 0.00 37 1012.5
20260905195016 98 153 7.0 13.0 0.00 0.00 0.00 36 1012.5
20260905194526 98 178 8.0 13.0 0.00 0.00 0.00 36 1012.5
20260905194015 98 165 7.0 13.0 0.00 0.00 0.00 36 1012.7
20260905193515 98 107 5.0 16.0 0.00 0.00 0.00 37 1012.9
20260905193029 98 360 6.0 16.0 0.00 0.00 0.00 36 1013.0
20260905192516 98 360 5.0 9.0 0.00 0.00 0.00 37 1013.1
20260905192018 97 159 5.0 9.0 0.00 0.00 0.00 38 1013.1
20260905191509 97 158 5.0 10.0 0.00 0.00 0.00 39 1013.3
20260905191012 97 360 5.0 10.0 0.00 0.00 0.00 38 1013.4
20260905190510 97 160 5.0 9.0 0.00 0.00 0.00 38 1013.4
20260905190019 97 118 3.0 12.0 0.00 0.00 0.00 38 1013.5
20260905185512 97 160 6.0 12.0 0.00 0.00 0.00 38 1013.5
20260905185014 97 136 2.0 12.0 0.00 0.00 0.00 38 1013.3
20260905184535 97 159 6.0 12.0 0.00 0.00 0.00 37 1013.3
20260905184014 98 151 6.0 13.0 0.00 0.00 0.00 38 1013.3
20260905183517 99 147 9.0 13.0 0.00 0.00 0.00 37 1013.5
20260905183032 99 113 5.0 10.0 0.00 0.00 0.00 37 1013.5
20260905182522 99 196 4.0 14.0 0.00 0.00 0.00 38 1013.6
20260905182021 99 360 6.0 14.0 0.00 0.00 0.00 37 1013.7
20260905181515 99 183 3.0 13.0 0.00 0.00 0.00 38 1013.8
20260905181015 100 142 6.0 13.0 0.00 0.00 0.00 38 1013.9
20260905180514 99 204 5.0 15.0 0.00 0.00 0.00 41 1013.9
20260905180023 99 167 6.0 15.0 0.00 0.00 0.00 40 1013.9
20260905175515 99 123 6.0 14.0 0.00 0.00 0.00 39 1013.9
20260905175016 98 190 7.0 14.0 0.00 0.00 0.00 41 1014.1
20260905174527 98 87 6.0 13.0 0.00 0.00 0.00 40 1014.2
20260905174019 97 187 5.0 14.0 0.00 0.00 0.00 42 1014.2
20260905173518 97 150 6.0 14.0 0.00 0.00 0.00 41 1014.2
20260905173033 97 199 6.0 11.0 0.00 0.00 0.00 42 1014.2
20260905172515 97 134 6.0 11.0 0.00 0.00 0.00 43 1014.3
20260905172009 96 158 5.0 9.0 0.00 0.00 0.00 43 1014.3
20260905171517 96 187 4.0 10.0 0.00 0.00 0.00 44 1014.3
20260905171011 96 173 4.0 11.0 0.00 0.00 0.00 43 1014.4
20260905170512 96 140 6.0 11.0 0.00 0.00 0.00 44 1014.4
20260905170027 95 144 4.0 13.0 0.00 0.00 0.00 44 1014.5
20260905165515 95 166 2.0 13.0 0.00 0.00 0.00 45 1014.4
20260905165018 95 154 5.0 11.0 0.00 0.00 0.00 44 1014.4
20260905164531 95 134 6.0 11.0 0.00 0.00 0.00 44 1014.4
20260905164020 95 140 5.0 10.0 0.00 0.00 0.00 44 1014.3
20260905163516 95 159 4.0 9.0 0.00 0.00 0.00 45 1014.3
20260905163035 94 146 5.0 9.0 0.00 0.00 0.00 46 1014.4
20260905162520 94 360 4.0 10.0 0.00 0.00 0.00 46 1014.5
20260905162013 93 215 5.0 10.0 0.00 0.00 0.00 46 1014.6
20260905161630 93 252 2.0 11.0 0.00 0.00 0.00 48 1014.5
20260905160515 92 160 5.0 9.0 0.00 0.00 0.00 49 1014.6
20260905160026 92 176 5.0 9.0 0.00 0.00 0.00 47 1014.5
20260905155516 92 194 3.0 8.0 0.00 0.00 0.00 48 1014.5
20260905155016 92 191 2.0 9.0 0.00 0.00 0.00 49 1014.5
20260905154535 91 209 3.0 9.0 0.00 0.00 0.00 49 1014.5
20260905154017 90 215 4.0 9.0 0.00 0.00 0.00 49 1014.4
20260905153517 90 233 5.0 9.0 0.00 0.00 0.00 50 1014.4
20260905153034 89 182 4.0 10.0 0.00 0.00 0.00 51 1014.4
20260905152512 89 262 4.0 12.0 0.00 0.00 0.00 51 1014.4
20260905152010 88 180 5.0 13.0 0.00 0.00 0.00 52 1014.4
20260905151530 88 188 5.0 13.0 0.00 0.00 0.00 52 1014.4
20260905151014 88 190 7.0 11.0 0.00 0.00 0.00 53 1014.4
20260905150519 87 142 2.0 12.0 0.00 0.00 0.00 53 1014.4
20260905150031 87 188 5.0 12.0 0.00 0.00 0.00 54 1014.4
20260905145518 87 187 2.0 10.0 0.00 0.00 0.00 54 1014.3
20260905145016 86 212 3.0 10.0 0.00 0.00 0.00 55 1014.2
20260905144534 86 217 4.0 9.0 0.00 0.00 0.00 56 1014.2
20260905144017 85 189 5.0 9.0 0.00 0.00 0.00 56 1014.1
20260905143520 85 155 2.0 8.0 0.00 0.00 0.00 57 1014.1
20260905143025 84 202 2.0 10.0 0.00 0.00 0.00 58 1014.1
20260905142512 84 200 3.0 11.0 0.00 0.00 0.00 58 1014.2
20260905142014 83 155 7.0 11.0 0.00 0.00 0.00 59 1014.1
20260905141503 82 213 1.0 7.0 0.00 0.00 0.00 61 1014.1
20260905141002 82 183 2.0 7.0 0.00 0.00 0.00 61 1014.1
20260905140504 81 166 2.0 7.0 0.00 0.00 0.00 62 1014.0
20260905140007 81 360 2.0 8.0 0.00 0.00 0.00 62 1014.0
20260905135506 81 166 4.0 10.0 0.00 0.00 0.00 62 1013.9
20260905135009 81 168 4.0 10.0 0.00 0.00 0.00 62 1013.9
20260905134513 80 172 6.0 9.0 0.00 0.00 0.00 63 1013.8
20260905134011 80 153 1.0 8.0 0.00 0.00 0.00 64 1013.8
20260905133512 80 144 2.0 8.0 0.00 0.00 0.00 64 1013.8
20260905133023 79 150 1.0 6.0 0.00 0.00 0.00 65 1013.8
20260905132514 79 173 0.0 5.0 0.00 0.00 0.00 65 1013.7
20260905132016 79 134 1.0 4.0 0.00 0.00 0.00 66 1013.8
20260905131504 78 150 1.0 4.0 0.00 0.00 0.00 66 1013.7
20260905131005 78 160 2.0 4.0 0.00 0.00 0.00 66 1013.7
20260905130507 78 150 0.0 2.0 0.00 0.00 0.00 66 1013.6
20260905130012 78 151 0.0 4.0 0.00 0.00 0.00 66 1013.5
20260905125508 78 157 0.0 5.0 0.00 0.00 0.00 66 1013.3
20260905125012 78 161 1.0 5.0 0.00 0.00 0.00 67 1013.3
20260905124522 77 178 0.0 2.0 0.00 0.00 0.00 68 1013.3
20260905124013 77 179 0.0 2.0 0.00 0.00 0.00 68 1013.3
20260905123512 77 155 0.0 0.0 0.00 0.00 0.00 69 1013.2
20260905123027 76 360 0.0 0.0 0.00 0.00 0.00 68 1013.3
20260905122515 76 163 0.0 0.0 0.00 0.00 0.00 68 1013.1
20260905122006 76 156 0.0 1.0 0.00 0.00 0.00 68 1013.1
20260905121507 76 181 0.0 2.0 0.00 0.00 0.00 68 1013.0
20260905121007 77 169 0.0 5.0 0.00 0.00 0.00 68 1012.9
20260905120506 77 180 1.0 5.0 0.00 0.00 0.00 68 1012.8
20260905120013 77 206 3.0 5.0 0.00 0.00 0.00 67 1012.7
20260905115512 77 161 2.0 4.0 0.00 0.00 0.00 67 1012.7
20260905115010 77 167 0.0 3.0 0.00 0.00 0.00 67 1012.7
20260905114524 78 183 0.0 4.0 0.00 0.00 0.00 66 1012.8
20260905114013 78 167 2.0 6.0 0.00 0.00 0.00 66 1012.7
20260905113515 78 167 2.0 6.0 0.00 0.00 0.00 65 1012.7
20260905113030 78 181 2.0 8.0 0.00 0.00 0.00 65 1012.7
20260905112515 78 360 4.0 8.0 0.00 0.00 0.00 64 1012.7
20260905112006 79 202 4.0 8.0 0.00 0.00 0.00 64 1012.8
20260905111509 79 171 4.0 11.0 0.00 0.00 0.00 64 1012.8
20260905111007 79 165 4.0 12.0 0.00 0.00 0.00 64 1012.8
20260905110514 79 178 4.0 12.0 0.00 0.00 0.00 64 1012.7
20260905110020 79 166 4.0 10.0 0.00 0.00 0.00 63 1012.7
20260905105512 79 152 5.0 9.0 0.00 0.00 0.00 63 1012.7
20260905105014 79 160 4.0 8.0 0.00 0.00 0.00 63 1012.8
20260905104528 80 182 4.0 9.0 0.00 0.00 0.00 63 1012.9
20260905104015 80 163 5.0 8.0 0.00 0.00 0.00 62 1012.9
20260905103518 80 166 4.0 8.0 0.00 0.00 0.00 62 1012.9
20260905103036 80 161 3.0 8.0 0.00 0.00 0.00 62 1012.9
20260905102507 80 188 4.0 10.0 0.00 0.00 0.00 61 1012.8
20260905102007 80 155 4.0 10.0 0.00 0.00 0.00 61 1012.8
20260905101519 81 177 3.0 7.0 0.00 0.00 0.00 61 1012.9
20260905101010 81 191 3.0 10.0 0.00 0.00 0.00 61 1013.0
20260905100510 81 165 4.0 10.0 0.00 0.00 0.00 60 1012.9
20260905100028 81 191 4.0 10.0 0.00 0.00 0.00 60 1012.9
20260905095513 81 152 6.0 14.0 0.00 0.00 0.00 60 1012.9
20260905095016 81 173 3.0 14.0 0.00 0.00 0.00 60 1013.0
20260905094530 82 181 5.0 9.0 0.00 0.00 0.00 59 1013.0
20260905094018 82 171 4.0 10.0 0.00 0.00 0.00 59 1013.0
20260905093521 82 171 4.0 10.0 0.00 0.00 0.00 59 1013.1
20260905093008 82 171 3.0 11.0 0.00 0.00 0.00 59 1013.2
20260905092508 82 171 4.0 11.0 0.00 0.00 0.00 59 1013.2
20260905092010 82 153 5.0 12.0 0.00 0.00 0.00 58 1013.1
20260905091518 82 142 6.0 11.0 0.00 0.00 0.00 58 1013.0
20260905091010 82 189 5.0 11.0 0.00 0.00 0.00 58 1013.0
20260905090512 82 360 4.0 10.0 0.00 0.00 0.00 58 1013.0
20260905090024 83 162 4.0 10.0 0.00 0.00 0.00 58 1013.0
20260905085517 83 167 5.0 10.0 0.00 0.00 0.00 58 1013.0
20260905085017 83 142 4.0 13.0 0.00 0.00 0.00 58 1013.0
20260905084529 83 164 6.0 14.0 0.00 0.00 0.00 58 1013.1
20260905084017 83 186 5.0 15.0 0.00 0.00 0.00 58 1013.0
20260905083517 83 173 5.0 15.0 0.00 0.00 0.00 58 1013.0
20260905083016 83 173 5.0 13.0 0.00 0.00 0.00 58 1013.0
20260905082510 82 165 6.0 11.0 0.00 0.00 0.00 59 1013.0
20260905082010 82 155 4.0 9.0 0.00 0.00 0.00 59 1013.1
20260905081524 82 360 4.0 9.0 0.00 0.00 0.00 59 1013.0
20260905081013 82 182 5.0 9.0 0.00 0.00 0.00 59 1013.0
20260905080513 83 171 3.0 10.0 0.00 0.00 0.00 59 1013.0
20260905080038 83 360 5.0 11.0 0.00 0.00 0.00 58 1013.1
20260905075517 83 167 6.0 11.0 0.00 0.00 0.00 58 1013.1
20260905075016 83 178 5.0 12.0 0.00 0.00 0.00 58 1013.2
20260905074532 83 152 5.0 12.0 0.00 0.00 0.00 58 1013.2
20260905074016 83 171 5.0 11.0 0.00 0.00 0.00 58 1013.1
20260905073509 83 173 6.0 12.0 0.00 0.00 0.00 58 1013.1
20260905073017 83 157 5.0 12.0 0.00 0.00 0.00 57 1013.1
20260905072513 83 188 4.0 12.0 0.00 0.00 0.00 57 1013.1
20260905072011 84 188 5.0 16.0 0.00 0.00 0.00 57 1013.1
20260905071523 84 192 6.0 16.0 0.00 0.00 0.00 57 1013.1
20260905071015 84 155 8.0 15.0 0.00 0.00 0.00 56 1013.1
20260905070516 84 180 6.0 11.0 0.00 0.00 0.00 57 1013.1
20260905070058 84 117 6.0 11.0 0.00 0.00 0.00 57 1013.3
20260905065515 84 159 5.0 10.0 0.00 0.00 0.00 57 1013.2
20260905065019 84 183 5.0 10.0 0.00 0.00 0.00 57 1013.1
20260905064532 84 156 4.0 10.0 0.00 0.00 0.00 57 1013.2
20260905064020 84 144 4.0 10.0 0.00 0.00 0.00 57 1013.2
20260905063508 84 171 6.0 12.0 0.00 0.00 0.00 57 1013.2
20260905063018 84 146 7.0 12.0 0.00 0.00 0.00 57 1013.2
20260905062518 84 142 6.0 11.0 0.00 0.00 0.00 57 1013.2
20260905062014 84 146 5.0 11.0 0.00 0.00 0.00 57 1013.1
20260905061532 84 162 4.0 13.0 0.00 0.00 0.00 57 1013.0
20260905061017 84 144 7.0 13.0 0.00 0.00 0.00 56 1013.0
20260905060516 84 143 7.0 13.0 0.00 0.00 0.00 56 1012.8
20260905060032 84 156 7.0 15.0 0.00 0.00 0.00 56 1012.9
20260905055517 85 155 7.0 15.0 0.00 0.00 0.00 56 1012.8
20260905055015 85 157 7.0 13.0 0.00 0.00 0.00 56 1012.8
20260905054546 85 173 6.0 12.0 0.00 0.00 0.00 56 1012.7
20260905054008 85 144 7.0 15.0 0.00 0.00 0.00 56 1012.6
20260905053511 85 140 7.0 15.0 0.00 0.00 0.00 56 1012.5
20260905053031 85 150 9.0 15.0 0.00 0.00 0.00 56 1012.5
20260905052503 85 143 9.0 15.0 0.00 0.00 0.00 56 1012.6
20260905052004 85 159 9.0 14.0 0.00 0.00 0.00 56 1012.7
20260905051504 85 218 8.0 14.0 0.00 0.00 0.00 56 1012.7
20260905051005 85 160 8.0 14.0 0.00 0.00 0.00 56 1012.9
20260905050508 85 155 5.0 12.0 0.00 0.00 0.00 56 1013.0